Home > Time Zones > World Clock > Weather > Italy > Rome > Past weeks

Flag for Italy Weather past 2 weeks in Rome, Italy

Now
52 °F

Clear.


Feels Like: 52 °F
Forecast: 49 / 74 °F
Wind: No wind

Location: Rome / Ciampino


UV Index: 3 (Moderate)

Visibility: 10 mi


Pressure: 29.89 "Hg

Humidity: 82%

Dew point: 46 °F

Location of RomeLocation

Historic Weather in Rome

°F

Rome temperature yesterday

Maximum temperature yesterday: 72 °F (at 3:45 PM)
Minimum temperature yesterday: 57 °F (at 5:15 AM)
Average temperature yesterday: 63 °F

Past Weeks' High & Low Weather Summary

 TemperatureHumidityPressure
High72 °F (Apr 21, 2:15 PM)88% (Apr 9, 5:45 AM)30.09 "Hg (Apr 9, 5:45 AM)
Low41 °F (Apr 16, 5:45 AM)23% (Apr 16, 3:45 PM)29.62 "Hg (Apr 19, 6:15 PM)
Average57 °F65%29.90 "Hg
* Reported Apr 9 5:15 AM — Apr 24 5:15 AM, Rome, Weather by CustomWeather, © 2014

Note: Actual official high and low records may vary slightly from our data, if they occured in-between our weather recording intervals... More about our weather records

Advertising

Historic Weather Conditions — Data for Previous 24 hours

 ConditionsComfort  
Time TempWeatherWind HumidityBarometerVisibility
5:15 AM
Apr 24
54 °FClear.No wind77%29.89 "Hg10 mi
4:45 AM54 °FClear.No wind77%29.89 "Hg10 mi
4:15 AM54 °FPassing clouds.3 mph77%29.89 "HgN/A
3:45 AM54 °FPassing clouds.3 mph77%29.89 "HgN/A
3:15 AM55 °FPassing clouds.2 mph72%29.89 "HgN/A
2:45 AM55 °FPassing clouds.3 mph72%29.89 "HgN/A
2:15 AM55 °FPassing clouds.No wind72%29.89 "HgN/A
1:15 AM57 °FPassing clouds.2 mph67%29.89 "HgN/A
12:45 AM57 °FPassing clouds.3 mph67%29.89 "HgN/A
12:15 AM59 °FPassing clouds.3 mph68%29.89 "HgN/A
11:45 PM
Apr 23
59 °FPassing clouds.3 mph68%29.89 "HgN/A
11:15 PM59 °FPassing clouds.No wind68%29.89 "HgN/A
10:45 PM61 °FPassing clouds.2 mph63%29.89 "HgN/A
10:15 PM61 °FPassing clouds.2 mph63%29.89 "HgN/A
9:45 PM63 °FPassing clouds.5 mph59%29.89 "HgN/A
9:15 PM63 °FPassing clouds.6 mph64%29.89 "HgN/A
8:45 PM63 °FScattered clouds.2 mph77%29.86 "HgN/A
8:15 PM64 °FScattered clouds.No wind73%29.86 "HgN/A
7:45 PM66 °FScattered clouds.3 mph64%29.86 "HgN/A
7:15 PM66 °FScattered clouds.6 mph64%29.83 "HgN/A
6:45 PM66 °FScattered clouds.8 mph64%29.83 "HgN/A
6:15 PM68 °FScattered clouds.7 mph53%29.83 "HgN/A
5:45 PM70 °FThundershowers. Scattered clouds.7 mph43%29.83 "HgN/A
5:15 PM72 °FThundershowers. Scattered clouds.7 mph41%29.83 "HgN/A
4:45 PM72 °FScattered clouds.9 mph38%29.83 "HgN/A
4:15 PM72 °FScattered clouds.6 mph38%29.83 "HgN/A
3:45 PM72 °FScattered clouds.7 mph41%29.83 "HgN/A
3:15 PM70 °FScattered clouds.3 mph50%29.86 "HgN/A
2:45 PM70 °FScattered clouds.5 mph53%29.86 "HgN/A
2:15 PM68 °FScattered clouds.6 mph60%29.89 "HgN/A
1:45 PM68 °FScattered clouds.6 mph64%29.89 "HgN/A
1:15 PM68 °FScattered clouds.6 mph64%29.89 "HgN/A
12:45 PM66 °FScattered clouds.6 mph68%29.89 "HgN/A
12:15 PM64 °FScattered clouds.6 mph73%29.89 "Hg6 mi
11:45 AM64 °FScattered clouds.3 mph73%29.92 "Hg6 mi
11:15 AM63 °FDrizzle. Broken clouds.2 mph83%29.92 "Hg5 mi
10:45 AM63 °FDrizzle. Broken clouds.2 mph83%29.92 "Hg5 mi
10:15 AM61 °FDrizzle. Broken clouds.1 mph83%29.92 "Hg5 mi
9:45 AM59 °FDrizzle. Broken clouds.2 mph82%29.89 "Hg5 mi
9:15 AM59 °FDrizzle. Broken clouds.1 mph82%29.89 "Hg5 mi
8:45 AM57 °FLight rain. Broken clouds.3 mph82%29.89 "Hg5 mi
8:15 AM57 °FLight rain. Broken clouds.5 mph82%29.89 "Hg5 mi
7:45 AM57 °FLight rain. Broken clouds.5 mph82%29.89 "Hg4 mi
7:15 AM57 °FLight rain. Partly cloudy.No wind82%29.89 "Hg4 mi
6:45 AM57 °FLight rain. Partly cloudy.No wind82%29.89 "Hg4 mi
6:15 AM57 °FLight rain. Partly cloudy.No wind82%29.89 "HgN/A
Weather by CustomWeather, © 2014

See weather overview